This is the latest recevied weather packets stored in our database for station/object HG6IQI-10. If no packets are shown the sender has not sent any weather packets the latest 10 day(s).
| Time | Temp. | Humidity | Pressure | Rain* | Wind** | Luminosity | Snow |
|---|---|---|---|---|---|---|---|
| 1787779059 | 16.11° C | 73% | 1020 hPa | - | - | - | - |
| 1787778159 | 16.11° C | 73% | 1019.9 hPa | - | - | - | - |
| 1787777259 | 16.11° C | 72% | 1019.9 hPa | - | - | - | - |
| 1787776359 | 16.67° C | 70% | 1019.8 hPa | - | - | - | - |
| 1787775458 | 17.22° C | 67% | 1019.8 hPa | - | - | - | - |
| 1787774558 | 17.78° C | 66% | 1019.8 hPa | - | - | - | - |
| 1787773658 | 17.78° C | 64% | 1019.7 hPa | - | - | - | - |
| 1787772758 | 18.33° C | 62% | 1019.4 hPa | - | - | - | - |
| 1787771858 | 18.89° C | 60% | 1019.3 hPa | - | - | - | - |
| 1787770958 | 19.44° C | 59% | 1019.2 hPa | - | - | - | - |
| 1787770058 | 19.44° C | 59% | 1019.3 hPa | - | - | - | - |
| 1787769157 | 20° C | 58% | 1019.2 hPa | - | - | - | - |
| 1787768257 | 20° C | 56% | 1019.1 hPa | - | - | - | - |
| 1787767357 | 20.56° C | 54% | 1019 hPa | - | - | - | - |
| 1787766457 | 21.11° C | 52% | 1018.9 hPa | - | - | - | - |
| 1787765557 | 21.67° C | 50% | 1018.9 hPa | - | - | - | - |
| 1787764657 | 22.22° C | 47% | 1018.9 hPa | - | - | - | - |
| 1787763756 | 23.33° C | 43% | 1018.7 hPa | - | - | - | - |
| 1787762856 | 24.44° C | 39% | 1018.6 hPa | - | - | - | - |
| 1787761956 | 24.44° C | 39% | 1018.4 hPa | - | - | - | - |
| 1787761056 | 24.44° C | 39% | 1018.5 hPa | - | - | - | - |
| 1787760156 | 25° C | 38% | 1018.4 hPa | - | - | - | - |
| 1787759256 | 25° C | 38% | 1018.5 hPa | - | - | - | - |
| 1787758355 | 25.56° C | 37% | 1018.5 hPa | - | - | - | - |
| 1787757459 | 25.56° C | 36% | 1018.7 hPa | - | - | - | - |
* Rain since midnight (hover to see other rain measurements)
** Current wind speed in m/s (hover to see current wind gust speed)